ECFOS LEMD-LPPT

Flight info

Callsign ECFOS
Flight time N/A
Altitude 29000
Route CCS DCT ELVAR DCT UPULO
Aircraft TBM8/L-SDFGRWY/S

Departure

Time 2026-05-06 15:30
Airport Adolfo Suárez Madrid–Barajas Airport (LEMD)

Arrival

Time N/A
Airport Lisbon Humberto Delgado Airport (LPPT)
Time Latitude Longitude Altitude Speed Heading
2026-05-06 15:14 40.45641 -3.57300 1946 ft 0 kts 228°
2026-05-06 15:20 40.45640 -3.57301 1946 ft 2 kts 228°
2026-05-06 15:20 40.45611 -3.57340 1946 ft 8 kts 208°
2026-05-06 15:21 40.45588 -3.57326 1945 ft 2 kts 131°
2026-05-06 15:21 40.45574 -3.57270 1944 ft 11 kts 80°
2026-05-06 15:21 40.45638 -3.57174 1945 ft 17 kts 44°
2026-05-06 15:21 40.45735 -3.57049 1945 ft 22 kts 45°
2026-05-06 15:22 40.45846 -3.56894 1945 ft 24 kts 46°
2026-05-06 15:22 40.45921 -3.56799 1946 ft 7 kts 41°
2026-05-06 15:22 40.45984 -3.56751 1946 ft 13 kts
2026-05-06 15:22 40.46087 -3.56751 1948 ft 16 kts
2026-05-06 15:23 40.46205 -3.56734 1950 ft 18 kts 37°
2026-05-06 15:23 40.46242 -3.56603 1949 ft 16 kts 27°
2026-05-06 15:23 40.46358 -3.56590 1951 ft 18 kts
2026-05-06 15:23 40.46490 -3.56581 1954 ft 20 kts
2026-05-06 15:24 40.46639 -3.56566 1956 ft 23 kts
2026-05-06 15:24 40.46809 -3.56551 1960 ft 26 kts
2026-05-06 15:24 40.46998 -3.56545 1963 ft 28 kts 355°
2026-05-06 15:24 40.47175 -3.56659 1967 ft 29 kts 326°
2026-05-06 15:25 40.47336 -3.56820 1972 ft 29 kts 321°
2026-05-06 15:25 40.47498 -3.56983 1976 ft 29 kts 321°
2026-05-06 15:25 40.47661 -3.57155 1980 ft 31 kts 318°
2026-05-06 15:25 40.47834 -3.57329 1985 ft 32 kts 320°
2026-05-06 15:26 40.48010 -3.57508 1990 ft 32 kts 321°
2026-05-06 15:26 40.48189 -3.57689 1995 ft 33 kts 321°
2026-05-06 15:26 40.48369 -3.57869 1998 ft 33 kts 326°
2026-05-06 15:26 40.48557 -3.58029 1995 ft 31 kts 329°
2026-05-06 15:27 40.48749 -3.58059 1992 ft 30 kts 359°
2026-05-06 15:27 40.48972 -3.58059 1989 ft 34 kts 358°
2026-05-06 15:27 40.49202 -3.58063 1987 ft 22 kts 359°
2026-05-06 15:27 40.49244 -3.57989 1987 ft 14 kts 89°
2026-05-06 15:28 40.49244 -3.57820 1988 ft 22 kts 88°
2026-05-06 15:28 40.49256 -3.57602 1990 ft 20 kts 66°
2026-05-06 15:28 40.49364 -3.57471 1990 ft 24 kts 14°
2026-05-06 15:28 40.49466 -3.57462 1989 ft 0 kts
2026-05-06 15:29 40.49587 -3.57462 1990 ft 44 kts 359°
2026-05-06 15:29 40.50079 -3.57463 1990 ft 96 kts
2026-05-06 15:30 40.50865 -3.57434 2092 ft 125 kts 360°
2026-05-06 15:30 40.51807 -3.57412 2274 ft 143 kts 357°
2026-05-06 15:30 40.52844 -3.57425 2609 ft 157 kts 360°
2026-05-06 15:30 40.53963 -3.57459 2913 ft 169 kts 355°
2026-05-06 15:31 40.55064 -3.57558 3707 ft 148 kts 352°
2026-05-06 15:31 40.55949 -3.58167 4254 ft 148 kts 309°
2026-05-06 15:31 40.56452 -3.59352 4725 ft 150 kts 302°
2026-05-06 15:32 40.57679 -3.61503 5727 ft 150 kts 275°
2026-05-06 15:32 40.57591 -3.62865 6198 ft 152 kts 265°
2026-05-06 15:32 40.57614 -3.64259 6681 ft 152 kts 272°
2026-05-06 15:32 40.57680 -3.65659 7151 ft 153 kts 273°
2026-05-06 15:33 40.57757 -3.67067 7629 ft 154 kts 273°
2026-05-06 15:33 40.57835 -3.68464 8124 ft 155 kts 273°
2026-05-06 15:33 40.57916 -3.69887 8599 ft 156 kts 273°
2026-05-06 15:33 40.57996 -3.71316 9074 ft 157 kts 274°
2026-05-06 15:34 40.58079 -3.72753 9547 ft 158 kts 274°
2026-05-06 15:34 40.58162 -3.74204 10003 ft 159 kts 274°
2026-05-06 15:34 40.58244 -3.75662 10432 ft 160 kts 273°
2026-05-06 15:34 40.58327 -3.77129 10857 ft 162 kts 273°
2026-05-06 15:35 40.58410 -3.78618 11287 ft 163 kts 272°
2026-05-06 15:35 40.58494 -3.80094 11715 ft 164 kts 272°
2026-05-06 15:35 40.58580 -3.81599 12157 ft 165 kts 272°
2026-05-06 15:35 40.58664 -3.83108 12601 ft 166 kts 272°
2026-05-06 15:36 40.58747 -3.84631 12984 ft 172 kts 272°
2026-05-06 15:36 40.58845 -3.86313 13006 ft 197 kts 273°
2026-05-06 15:36 40.58962 -3.88202 13003 ft 216 kts 273°
2026-05-06 15:36 40.59079 -3.90240 13003 ft 229 kts 273°
2026-05-06 15:37 40.59194 -3.92364 13044 ft 236 kts 273°
2026-05-06 15:37 40.59304 -3.94427 13773 ft 212 kts 272°
2026-05-06 15:37 40.59390 -3.96263 14520 ft 194 kts 271°
2026-05-06 15:37 40.59479 -3.97985 15196 ft 177 kts 272°
2026-05-06 15:38 40.59558 -3.99483 16013 ft 153 kts 271°
2026-05-06 15:38 40.59629 -4.00923 16251 ft 166 kts 272°
2026-05-06 15:38 40.59724 -4.02415 16686 ft 164 kts 272°
2026-05-06 15:38 40.59807 -4.03905 17117 ft 164 kts 272°
2026-05-06 15:39 40.59888 -4.05403 17526 ft 164 kts 272°
2026-05-06 15:39 40.59969 -4.06906 17936 ft 164 kts 272°
2026-05-06 15:39 40.60050 -4.08402 18324 ft 164 kts 272°
2026-05-06 15:39 40.60131 -4.09899 18675 ft 164 kts 272°
2026-05-06 15:40 40.60210 -4.11396 19023 ft 164 kts 272°
2026-05-06 15:40 40.60290 -4.12893 19369 ft 164 kts 272°
2026-05-06 15:40 40.60369 -4.14380 19701 ft 164 kts 272°
2026-05-06 15:40 40.60450 -4.15878 20047 ft 164 kts 272°
2026-05-06 15:41 40.60528 -4.17372 20418 ft 162 kts 272°
2026-05-06 15:41 40.60604 -4.18848 20765 ft 162 kts 271°
2026-05-06 15:41 40.60682 -4.20328 21091 ft 162 kts 271°
2026-05-06 15:41 40.60761 -4.21808 21438 ft 162 kts 271°
2026-05-06 15:42 40.60839 -4.23290 21759 ft 162 kts 271°
2026-05-06 15:42 40.60918 -4.24774 22095 ft 162 kts 271°
2026-05-06 15:42 40.60995 -4.26257 22432 ft 163 kts 271°
2026-05-06 15:42 40.61072 -4.27746 22778 ft 163 kts 271°
2026-05-06 15:43 40.61149 -4.29237 23103 ft 164 kts 271°
2026-05-06 15:43 40.61226 -4.30734 23428 ft 164 kts 271°
2026-05-06 15:43 40.61303 -4.32210 23705 ft 164 kts 271°
2026-05-06 15:43 40.61380 -4.33712 23960 ft 165 kts 271°
2026-05-06 15:44 40.61458 -4.35222 24223 ft 165 kts 271°
2026-05-06 15:44 40.61536 -4.36735 24480 ft 166 kts 271°
2026-05-06 15:44 40.61614 -4.38258 24738 ft 167 kts 271°
2026-05-06 15:44 40.61692 -4.39785 24989 ft 167 kts 271°
2026-05-06 15:45 40.61770 -4.41317 25247 ft 168 kts 271°
2026-05-06 15:45 40.61849 -4.42861 25499 ft 169 kts 271°
2026-05-06 15:45 40.61927 -4.44405 25753 ft 170 kts 271°
2026-05-06 15:45 40.62006 -4.45963 26003 ft 171 kts 271°
2026-05-06 15:46 40.62084 -4.47526 26260 ft 171 kts 271°
2026-05-06 15:46 40.62163 -4.49096 26505 ft 172 kts 271°
2026-05-06 15:46 40.62242 -4.50655 26757 ft 173 kts 271°
2026-05-06 15:46 40.62323 -4.52237 27021 ft 174 kts 271°
2026-05-06 15:47 40.62401 -4.53830 27281 ft 174 kts 271°
2026-05-06 15:47 40.62243 -4.55392 27557 ft 174 kts 246°
2026-05-06 15:47 40.61542 -4.56709 27785 ft 178 kts 233°
2026-05-06 15:47 40.60765 -4.57984 28025 ft 178 kts 235°
2026-05-06 15:48 40.60017 -4.59293 28288 ft 179 kts 236°
2026-05-06 15:48 40.59269 -4.60613 28525 ft 180 kts 236°
2026-05-06 15:48 40.58529 -4.61920 28781 ft 181 kts 236°
2026-05-06 15:48 40.57774 -4.63250 28955 ft 185 kts 236°
2026-05-06 15:49 40.56981 -4.64656 28969 ft 197 kts 236°
2026-05-06 15:49 40.56140 -4.66146 28968 ft 208 kts 236°
2026-05-06 15:49 40.55556 -4.67174 28965 ft 215 kts 236°
2026-05-06 15:49 40.54643 -4.68780 28969 ft 224 kts 236°
2026-05-06 15:50 40.53686 -4.70461 28967 ft 233 kts 236°
2026-05-06 15:50 40.52701 -4.72193 28968 ft 240 kts 236°
2026-05-06 15:50 40.51682 -4.73982 28963 ft 246 kts 235°
2026-05-06 15:50 40.50643 -4.75807 28961 ft 252 kts 236°
2026-05-06 15:51 40.49582 -4.77665 28965 ft 257 kts 235°
2026-05-06 15:51 40.48500 -4.79560 28958 ft 260 kts 235°
2026-05-06 15:51 40.47408 -4.81470 28961 ft 263 kts 235°
2026-05-06 15:51 40.46341 -4.83340 28959 ft 265 kts 235°
2026-05-06 15:52 40.45231 -4.85287 28956 ft 267 kts 235°
2026-05-06 15:52 40.44113 -4.87242 28960 ft 269 kts 235°
2026-05-06 15:52 40.42983 -4.89217 28955 ft 271 kts 235°
2026-05-06 15:52 40.41847 -4.91199 28953 ft 272 kts 235°
2026-05-06 15:53 40.40707 -4.93188 28960 ft 273 kts 235°
2026-05-06 15:53 40.39563 -4.95183 28958 ft 274 kts 235°
2026-05-06 15:53 40.38412 -4.97189 28958 ft 275 kts 235°
2026-05-06 15:53 40.37258 -4.99199 28959 ft 276 kts 235°
2026-05-06 15:54 40.36068 -5.01185 28956 ft 277 kts 232°
2026-05-06 15:54 40.34775 -5.03014 28953 ft 278 kts 227°
2026-05-06 15:54 40.33530 -5.04945 28956 ft 277 kts 237°
2026-05-06 15:54 40.32470 -5.07047 28958 ft 277 kts 238°
2026-05-06 15:55 40.31361 -5.09115 28956 ft 278 kts 234°
2026-05-06 15:55 40.30173 -5.11116 28951 ft 278 kts 233°
2026-05-06 15:55 40.28982 -5.13111 28947 ft 279 kts 232°
2026-05-06 15:55 40.27607 -5.14820 28940 ft 281 kts 221°
2026-05-06 15:56 40.26009 -5.16318 28933 ft 284 kts 212°
2026-05-06 15:56 40.24339 -5.17661 28940 ft 280 kts 224°
2026-05-06 15:56 40.23125 -5.19613 28946 ft 277 kts 238°
2026-05-06 15:56 40.21857 -5.21526 28937 ft 282 kts 222°
2026-05-06 15:57 40.20389 -5.23205 28940 ft 279 kts 231°
2026-05-06 15:57 40.19264 -5.25270 28912 ft 280 kts 239°
2026-05-06 15:57 40.18242 -5.27436 28912 ft 280 kts 239°
2026-05-06 15:57 40.17142 -5.29552 28903 ft 281 kts 235°
2026-05-06 15:58 40.15958 -5.31591 28905 ft 281 kts 234°
2026-05-06 15:58 40.14786 -5.33640 28908 ft 281 kts 236°
2026-05-06 15:58 40.13643 -5.35712 28901 ft 281 kts 236°
2026-05-06 15:58 40.12548 -5.37691 28900 ft 281 kts 236°
2026-05-06 15:59 40.11403 -5.39735 28898 ft 281 kts 235°
2026-05-06 15:59 40.10266 -5.41762 28897 ft 281 kts 235°
2026-05-06 15:59 40.09115 -5.43824 28892 ft 280 kts 235°
2026-05-06 15:59 40.07981 -5.45851 28891 ft 280 kts 235°
2026-05-06 16:00 40.06826 -5.47912 28888 ft 280 kts 235°
2026-05-06 16:00 40.05676 -5.49962 28885 ft 280 kts 235°
2026-05-06 16:00 40.04534 -5.51999 28886 ft 280 kts 235°
2026-05-06 16:00 40.03385 -5.54046 28887 ft 279 kts 235°
2026-05-06 16:01 40.02233 -5.56096 28884 ft 279 kts 235°
2026-05-06 16:01 40.01085 -5.58142 28891 ft 278 kts 236°
2026-05-06 16:01 39.99941 -5.60177 28888 ft 279 kts 235°
2026-05-06 16:01 39.98791 -5.62214 28886 ft 279 kts 235°
2026-05-06 16:02 39.97646 -5.64252 28885 ft 279 kts 235°
2026-05-06 16:02 39.96510 -5.66268 28888 ft 279 kts 235°
2026-05-06 16:02 39.95359 -5.68309 28888 ft 279 kts 235°
2026-05-06 16:02 39.94210 -5.70345 28885 ft 279 kts 235°
2026-05-06 16:03 39.93061 -5.72382 28883 ft 279 kts 235°
2026-05-06 16:03 39.91914 -5.74413 28880 ft 279 kts 235°
2026-05-06 16:03 39.90763 -5.76448 28882 ft 279 kts 235°
2026-05-06 16:03 39.89844 -5.78073 28882 ft 279 kts 235°